This demonstration page uses our WeatherBlox Daily Observations layout. Learn more.

Left ArrowRight Arrow

36.19886, -115.1175

Hourly Observations for August 2, 2015

Temp ( °F °C ) Dew Point ( °F °C ) Humidity (%) Winds ( mph kmh ) Pressure ( in mb ) Visibility ( mi km ) Precip ( " mm )
12:53 am 00:53 Clear 80 26.7 59 15 49 49 NW 10 17 29.90 1012 10 16 0.00 0.00
1:53 am 01:53 Clear 79 26.1 59 15 50 50 NNW 8 13 29.88 1012 10 16 0.00 0.00
2:53 am 02:53 Clear 79 26.1 57 13.9 47 47 WNW 9 15 29.88 1012 10 16 0.00 0.00
3:53 am 03:53 Clear 80 26.7 58 14.4 47 47 WNW 6 9 29.88 1012 10 16 0.00 0.00
4:53 am 04:53 Clear 77 25 57 13.9 50 50 NW 8 13 29.88 1012 10 16 0.00 0.00
5:53 am 05:53 Sunny 79 26.1 55 12.8 44 44 VRB 5 7 29.89 1012 10 16 0.00 0.00
6:53 am 06:53 Sunny 76 24.4 57 13.9 52 52 N 7 11 29.91 1013 10 16 0.00 0.00
7:53 am 07:53 Sunny 77 25 58 14.4 52 52 NW 8 13 29.91 1013 10 16 0.00 0.00
8:53 am 08:53 Sunny 84 28.9 56 13.3 38 38 WNW 6 9 29.92 1013 10 16 0.00 0.00
9:53 am 09:53 Sunny 88 31.1 55 12.8 33 33 N 5 7 29.91 1013 10 16 0.00 0.00
10:53 am 10:53 Sunny 91 32.8 54 12.2 28 28 E 3 6 29.90 1013 10 16 0.00 0.00
11:53 am 11:53 Sunny 94 34.4 53 11.7 25 25 ENE 7 11 29.88 1012 10 16 0.00 0.00
12:53 pm 12:53 Sunny 95 35 53 11.7 24 24 Calm 29.86 1011 10 16 0.00 0.00
1:53 pm 13:53 Sunny 98 36.7 51 10.6 20 20 undefined N/A 29.83 1010 10 16 0.00 0.00
2:53 pm 14:53 Sunny 99 37.2 50 10 19 19 Calm 29.80 1009 10 16 0.00 0.00
3:53 pm 15:53 Sunny 100 37.8 50 10 18 18 N 5 7 29.77 1008 10 16 0.00 0.00
4:53 pm 16:53 Sunny 100 37.8 49 9.4 18 18 Calm 29.75 1008 10 16 0.00 0.00
5:53 pm 17:53 Sunny 101 38.3 48 8.9 17 17 ENE 7 11 29.73 1007 10 16 0.00 0.00
6:53 pm 18:53 Sunny 100 37.8 48 8.9 17 17 ENE 3 6 29.74 1007 10 16 0.00 0.00
7:53 pm 19:53 Clear 99 37.2 48 8.9 18 18 Calm 29.74 1007 10 16 0.00 0.00
8:53 pm 20:53 Clear 96 35.6 50 10 21 21 W 5 7 29.75 1007 10 16 0.00 0.00
9:53 pm 21:53 Clear 94 34.4 51 10.6 23 23 WSW 3 6 29.76 1008 10 16 0.00 0.00
10:53 pm 22:53 Clear 90 32.2 51 10.6 26 26 N 5 7 29.76 1008 10 16 0.00 0.00
11:53 pm 23:53 Clear 88 31.1 50 10 27 27 WNW 7 11 29.76 1008 10 16 0.00 0.00

Powered by AerisWeather